Flag for U.S.A. Weather past 2 weeks in Gainesville, Florida, U.S.A.

Now
69 °F

Overcast.


Feels Like: 69 °F
Forecast: 55 / 79 °F
Wind: 6 mph from West

Location: Gainesville Regional Airport

Current Time: Mar 31, 2015 at 11:54:44 AM

Latest Report: Mar 31, 2015 at 10:53 AM


Visibility: 10 mi

Pressure: 30.15 "Hg

Humidity: 79%

Dew point: 62 °F

Location of GainesvilleLocation

Historic Weather in Gainesville — Graph

°F

Gainesville temperature yesterday

Maximum temperature yesterday: 77 °F (at 3:53 PM)
Minimum temperature yesterday: 40 °F (at 3:53 AM)
Average temperature yesterday: 59 °F

Past Weeks' High & Low Weather Summary

 TemperatureHumidityPressure
High86 °F (Mar 17, 3:53 PM)100% (Mar 17, 6:53 AM)30.40 "Hg (Mar 17, 6:53 AM)
Low39 °F (Mar 29, 3:53 AM)22% (Mar 29, 5:53 PM)29.75 "Hg (Mar 27, 5:00 PM)
Average65 °F77%30.05 "Hg
* Reported Mar 16 9:53 AM — Mar 31 9:53 AM, Gainesville, Weather by CustomWeather, © 2015

Note: Actual official high and low records may vary slightly from our data, if they occured in-between our weather recording intervals... More about our weather records

Advertising

Gainesville weather history for previous 24 hours

 ConditionsComfort  
Time TempWeatherWind HumidityBarometerVisibility
9:53 AM
Tue, Mar 31
65 °FOvercast.9 mph91%30.15 "Hg10 mi
8:53 AM64 °FOvercast.7 mph90%30.14 "Hg9 mi
7:53 AM61 °FOvercast.6 mph97%30.13 "Hg8 mi
6:53 AM61 °FOvercast.7 mph93%30.12 "Hg9 mi
5:53 AM57 °FPassing clouds.5 mph96%30.11 "Hg8 mi
4:53 AM57 °FClear.5 mph96%30.11 "Hg9 mi
3:53 AM57 °FClear.5 mph96%30.12 "Hg10 mi
2:53 AM58 °FClear.6 mph93%30.13 "Hg10 mi
1:53 AM59 °FClear.6 mph90%30.15 "Hg10 mi
12:53 AM61 °FClear.8 mph87%30.16 "Hg10 mi
11:53 PM
Mon, Mar 30
62 °FClear.8 mph83%30.16 "Hg10 mi
10:53 PM62 °FClear.8 mph80%30.17 "Hg10 mi
9:53 PM63 °FClear.9 mph73%30.18 "Hg10 mi
8:53 PM64 °FClear.10 mph70%30.16 "Hg10 mi
7:53 PM67 °FPassing clouds.10 mph63%30.15 "Hg10 mi
6:53 PM71 °FSunny.14 mph55%30.14 "Hg10 mi
5:53 PM75 °FScattered clouds.12 mph48%30.14 "Hg10 mi
4:53 PM74 °FMostly cloudy.14 mph46%30.14 "Hg10 mi
3:53 PM77 °FPartly sunny.12 mph44%30.15 "Hg10 mi
2:53 PM76 °FScattered clouds.10 mph43%30.19 "Hg10 mi
1:53 PM74 °FSunny.15 mph41%30.24 "Hg10 mi
12:53 PM71 °FSunny.9 mph38%30.28 "Hg10 mi
11:53 AM67 °FSunny.6 mph37%30.30 "Hg10 mi
Weather by CustomWeather, © 2015

See weather overviewHow to use our weather pages